• MPC Preparation (Info)

  • MPEC 2012-D38 : 2000 DO1

    The following Minor Planet Electronic Circular may be linked-to from your own Web pages, but must not otherwise be redistributed electronically.

    A form allowing access to any MPEC is at the bottom of this page.


    Read MPEC 2012-D37 Read MPEC 2012-D39


    M.P.E.C. 2012-D38                                Issued 2012 Feb. 21, 16:17 UT
    
         The Minor Planet Electronic Circulars contain information on unusual
             minor planets and routine data on comets.  They are published
       on behalf of Commission 20 of the International Astronomical Union by the
              Minor Planet Center, Smithsonian Astrophysical Observatory,
                              Cambridge, MA 02138, U.S.A.
    
                 Prepared using the Tamkin Foundation Computer Network
    
                                  MPC@CFA.HARVARD.EDU
                URL https://www.minorplanetcenter.net/    ISSN 1523-6714
    
                                       2000 DO1
    
                               Revision to MPEC 2000-D35
    
    Additional Observations:
         K00D01O  C2010 12 06.19818 03 07 35.14 +25 27 17.7          21.2 VrED038G96
         K00D01O  C2010 12 06.20202 03 07 34.71 +25 27 15.0          22.4 VrED038G96
         K00D01O  C2010 12 06.20590 03 07 34.24 +25 27 12.2          21.8 VrED038G96
         K00D01O  C2010 12 06.20979 03 07 33.85 +25 27 09.3          21.5 VrED038G96
         K00D01O  C2012 02 21.44815 14 13 01.16 -15 22 23.7          18.9 VrED038703
         K00D01O  C2012 02 21.45553 14 13 05.70 -15 22 56.7          18.6 VrED038703
         K00D01O  C2012 02 21.48155 14 13 21.64 -15 24 50.0          18.9 VrED038703
         K00D01O  C2012 02 21.48168 14 13 21.64 -15 24 50.9          18.8 RoED038H01
         K00D01O  C2012 02 21.48200 14 13 21.93 -15 24 51.9          19.1 VrED038703
         K00D01O  C2012 02 21.48246 14 13 22.26 -15 24 53.9          19.2 VrED038703
         K00D01O  C2012 02 21.48781 14 13 25.40 -15 25 17.7          18.7 RoED038H01
         K00D01O  C2012 02 21.49300 14 13 28.60 -15 25 40.2          18.7 RoED038H01
         K00D01O  C2012 02 21.50282 14 13 34.66 -15 26 23.2          18.5 RoED038H01
         K00D01O  C2012 02 21.52002 14 13 45.35 -15 27 37.5          18.2 VrED038703
         K00D01O  C2012 02 21.52048 14 13 45.64 -15 27 39.6          18.5 VrED038703
         K00D01O  C2012 02 21.61030 14 14 44.43 -15 33 23.3          18.8 RoED038474
         K00D01O  C2012 02 21.61078 14 14 44.75 -15 33 25.4          18.6 RoED038474
         K00D01O  C2012 02 21.61125 14 14 45.09 -15 33 28.0          18.4 RoED038474
         K00D01O  C2012 02 21.61171 14 14 45.37 -15 33 29.9          18.8 RoED038474
         K00D01O  C2012 02 21.61219 14 14 45.67 -15 33 32.0          18.6 RoED038474
         K00D01O  C2012 02 21.61266 14 14 45.96 -15 33 33.8          18.5 RoED038474
    
    Observer details:
    474 Mount John Observatory, Lake Tekapo.  Observers A. C. Gilmore,
        P. M. Kilmartin.  Measurer P. M. Kilmartin.  1.0-m f/7.7 reflector + CCD.
    703 Catalina Sky Survey.  Observer A. R. Gibbs.  Measurers J. D. Ahern,
        E. C. Beshore, A. Boattini, G. J. Garradd, A. R. Gibbs, P. Tricarico,
        A. D. Grauer, R. E. Hill, R. A. Kowalski, S. M. Larson, R. H. McNaught.
        0.68-m Schmidt + CCD.
    G96 Mt. Lemmon Survey.  Observer A. D. Grauer.  Measurers J. D. Ahern,
        E. C. Beshore, A. Boattini, G. J. Garradd, A. R. Gibbs, A. D. Grauer,
        R. E. Hill, R. A. Kowalski, S. M. Larson, R. H. McNaught.  1.5-m reflector
        + CCD.
    H01 Magdalena Ridge Observatory, Socorro.  Observer W. H. Ryan.  2.4-m f/8.9
        reflector + CCD.
    
    Orbital elements:
    2000 DO1                                            PHA, Earth MOID = 0.0133 AU
    Epoch 2012 Mar. 14.0 TT = JDT 2456000.5                 MPC
    M 339.01634              (2000.0)            P               Q
    n   0.57628930     Peri.  302.52050     +0.14939934     +0.98847421
    a   1.4301305      Node   336.03558     -0.88578426     +0.12280119
    e   0.6817369      Incl.    3.45332     -0.43939287     +0.08853587
    P   1.71           H   20.3           G   0.15           U   2
    Residuals in seconds of arc
    000216 703  0.8+  0.9+    000302 750  0.0   0.5+    000306 610 (2.1-  0.6-)
    000216 703  1.5+  0.1+    000302 750  0.3+  0.5+    000306 610 (2.1-  0.5-)
    000216 703  0.9+  0.6+    000302 670  0.4+  0.1+    000306 610 (2.2-  0.4-)
    000216 703 (2.5+  1.1+)   000302 670  0.2+  0.1-    000306 610 (2.2-  0.4-)
    000227 703  0.0   0.3+    000302 422  0.2+  0.0     000306 610 (2.1-  0.3-)
    000227 703  0.6+  0.5+    000302 422  0.1+  0.2-    000306 046  0.3+  0.3+
    000227 703  0.5+  0.2+    000302 422  0.2-  0.0     000306 046  0.9+  0.3+
    000227 703  0.4+  0.3+    000302 348  0.6+  0.3-    000306 046  0.5+  0.7+
    000227 413  0.2+  0.3+    000302 348  1.8+  1.0-    000306 046  0.4+  0.4+
    000227 413  0.0   0.3+    000302 610  0.6+  0.2+    000306 046  0.3+  0.6+
    000227 413  0.1+  0.3+    000302 610  0.5+  0.2+    000306 121  0.7-  0.7-
    000227 413  0.3+  0.4+    000302 610  0.4+  0.1+    000306 121  1.0-  0.6-
    000227 413  0.3+  0.3+    000302 610  0.4+  0.0     000306 121  1.2-  0.6-
    000227 046  0.5+  0.3+    000302 610  0.4+  0.1-    000306 121  1.2-  0.4-
    000227 046  0.3+  0.1+    000304 620  0.5+  0.0     000306 121  1.3-  0.3-
    000227 046  0.3+  0.1+    000304 620  0.2-  0.0     000306 121  1.0-  0.9-
    000227 046  0.0   0.6+    000304 620  0.7-  0.1-    000306 121  0.9-  1.0-
    000227 046  0.1+  0.2+    000304 967  0.7-  0.7-    000306 121  0.9-  0.9-
    000227 151  1.1+  0.4-    000304 967  1.3+  0.5-    000307 474  0.5+  0.5+
    000227 151  0.6+  0.6-    000304 967  0.3-  0.4-    000307 474  0.3+  0.4+
    000227 151  1.5-  0.8+    000304 967  0.1-  0.9-    000307 474  0.4+  0.4+
    000227 151  0.1+  1.2+    000304 046  0.2+  0.0     000307 474  0.4+  0.6+
    000227 151  1.5-  0.9+    000304 046  0.3+  0.0     000307 057 (0.9-  2.6-)
    000227 151  0.8-  0.5-    000304 046  0.2+  0.0     000307 057  0.1+  1.5-
    000227 611  0.1-  0.8+    000304 130  0.1+  0.4+    000307 057  1.3+  1.4+
    000227 611  0.0   0.8+    000304 130 (2.4-  2.8-)   000307 057  1.3+  0.4+
    000227 611  0.5+  1.0+    000304 130  0.1+  0.2-    000308 349  0.5+  0.0
    000228 858  0.5+  0.1+    000304 118  0.3+  0.6+    000308 349  0.5+  0.3+
    000228 858  0.1+  0.0     000304 118  0.3+  0.6+    000308 349  0.0   0.0
    000228 858  0.2+  0.4+    000304 118  0.2+  0.6+    000308 349  0.3+  0.1+
    000228 750  0.6+  0.4+    000304 970  0.4+  0.8+    000308 176  0.7-  0.6+
    000228 750  0.2+  0.3+    000304 970  0.5+  0.8+    000308 176  1.3-  0.3+
    000228 750  0.2+  0.4+    000304 970  0.7+  0.4+    000308 176  1.9-  0.0
    000228 750  1.1-  0.1-    000305 967  0.0   0.5-    000308 176 (2.7-  0.5-)
    000228 658  0.1-  0.1+    000305 967  1.2-  0.6-    000308 176 (3.3-  0.8-)
    000228 658  1.1-  0.6+    000305 967  0.1-  0.7-    000309 865  0.4+  1.2-
    000228 658  0.7-  0.4+    000305 967  0.9+  0.4-    000309 865  1.7+  0.2-
    000228 413  0.1-  0.2+    000305 627  0.8-  0.3+    000309 865  1.1+  0.2-
    000228 413  0.2+  0.3+    000305 627  0.7+  0.4+    000309 865  0.9+  0.2+
    000228 344  0.9-  1.2-    000305 627  1.3-  0.4-    000309 865  1.3+  1.0-
    000228 344  0.9-  1.1-    000305 627  0.6-  0.2-    000309 865  1.1+  0.4-
    000228 344  1.1-  1.1-    000305 967  0.1-  0.6-    000309 865  0.6-  0.3-
    000228 422  0.7-  0.1-    000305 900  1.4-  0.3+    000309 865 (0.7+  3.0-)
    000228 422  0.2-  0.2-    000305 900  0.3-  0.7+    000309 865  2.0+  0.2-
    000228 422  0.2-  0.1-    000305 627  1.4+  0.7+    000309 865  1.1-  0.2-
    000228 595  0.3-  0.9-    000305 627  1.6+  0.8-    000309 865  0.2+  0.1-
    000228 595  0.2-  0.7-    000305 151  0.5-  0.5-    000309 865  0.0   0.6-
    000228 106  0.2-  0.5+    000305 151  0.8-  0.3-    000310 620  1.6+  1.6+
    000228 595  0.1-  0.9-    000305 151  0.5-  0.4-    000310 620  1.0+  1.2+
    000228 163  0.6-  0.1+    000305 151  0.4-  0.3-    000310 620  0.6+  0.8+
    000228 106  0.0   0.2+    000305 151  0.9-  0.7-    000310 620  1.6-  0.7-
    000228 163  0.1+  0.6+    000305 151  0.8-  0.5-    000311 703  1.9-  1.1+
    000228 163  0.6+  0.6+    000305 627  0.3+  0.6+    000311 703 (2.5-  0.2+)
    000228 106  0.1+  0.5+    000305 627  0.6+  0.0     000311 703  0.2-  0.5+
    000229 704  0.5+  0.6+    000305 627  0.5-  0.1+    000311 670  0.5+  0.1+
    000229 704 (0.5+  2.2+)   000305 610  0.1-  0.5-    000311 670  0.0   0.0
    000229 704  0.3+  1.1+    000305 610  0.1-  0.4-    000311 670  1.1-  0.3+
    000229 704  0.7+  0.5+    000305 610  0.1-  0.4-    101206 G96  0.2+  0.1-
    000229 360  0.1+  0.4-    000305 610  0.0   0.3-    101206 G96  0.1+  0.1-
    000229 360  0.5+  0.1+    000305 610  0.3+  0.2-    101206 G96  0.5-  0.1-
    000229 360  0.2-  0.2-    000305 627  0.5-  1.9-    101206 G96  0.0   0.2-
    000301 422  0.1-  0.3+    000305 627  1.6-  0.2+    120221 703  0.9-  0.1+
    000301 422  0.2+  0.7+    000306 750 (2.3+  0.3+)   120221 703  0.6-  0.7-
    000301 422  0.2+  0.2+    000306 750  0.5+  0.3+    120221 703  0.9-  0.3-
    000301 360  0.2+  0.2-    000306 750  1.0+  0.7+    120221 H01  0.1+  0.1+
    000301 360  0.1+  0.0     000306 750  0.1+  0.0     120221 703  0.7-  0.3-
    000301 360  0.2+  0.0     000306 750  1.0+  0.2+    120221 703  0.0   0.3-
    000301 900  0.3-  0.2+    000306 360  0.1+  0.1-    120221 H01  0.0   0.0
    000301 900  0.6-  0.0     000306 360  0.4+  0.1+    120221 H01  0.1+  0.2+
    000302 967  0.2-  0.7-    000306 360  0.3+  0.0     120221 H01  0.3+  0.0
    000302 967  0.4-  0.5-    000306 587  0.9+  0.3+    120221 703  0.5-  0.2+
    000302 967  0.1-  0.4-    000306 587  0.5+  0.4+    120221 703  0.4-  0.1+
    000302 967  0.1+  0.7-    000306 587  1.2+  0.4-    120221 474  0.1-  0.0
    000302 652 (0.2-  2.1+)   000306 151  0.9-  0.6-    120221 474  0.2+  0.1+
    000302 652 (2.5+  0.5+)   000306 151  1.3-  0.8-    120221 474  0.8+  0.5-
    000302 652  0.5+  1.5+    000306 151  1.3-  0.7-    120221 474  0.7+  0.3-
    000302 750  0.1-  0.3+    000306 151  0.7-  0.8-    120221 474  0.7+  0.3-
    000302 750  0.1-  0.4+    000306 151  0.5-  0.5-    120221 474  0.6+  0.0
    000302 750  0.1+  0.4+    000306 151  1.1-  0.6-
    
    Ephemeris:
    2000 DO1                 a,e,i = 1.43, 0.68, 3                   q = 0.4552
    Date    TT    R. A. (2000) Decl.     Delta      r     Elong.  Phase     V
    2012 01 22    12 12 39.0 +00 05 18   0.6714  1.4304   118.3    37.3    21.7
    ...
    2012 02 06    12 47 21.1 -04 25 15   0.4290  1.2755   123.8    40.0    20.6
    ...
    2012 02 14    13 18 38.6 -08 35 05   0.3110  1.1863   123.1    44.2    19.8
    ...
    2012 02 20    13 59 01.9 -13 42 35   0.2312  1.1163   118.1    51.4    19.3
    2012 02 21    14 08 26.3 -14 49 53   0.2190  1.1043   116.6    53.2    19.2
    2012 02 22    14 18 57.3 -16 02 46   0.2074  1.0923   114.8    55.3    19.1
    ...
    2012 02 28    15 56 32.4 -24 57 59   0.1523  1.0187    96.4    75.0    18.9
    ...
    2012 03 07    19 33 34.2 -28 23 45   0.1522  0.9167    56.3   115.7    20.6
    ...
    2012 03 22    22 30 02.0 -14 19 00   0.3361  0.7174    28.0   139.2    24.0
    
    Gareth V. Williams           (C) Copyright 2012 MPC           M.P.E.C. 2012-D38
    

    Read MPEC 2012-D37 Read MPEC 2012-D39


    MPEC number:

    Enter an MPEC number in one of the following forms:

    • 1997-B01 (the full form)
    • J97B01 (the packed version of the full form)
    • B01 (the abbreviated form)